[[{"header":{"parameterUnit":"m.s-1","parameterCategory":1,"la1":30.2992,"la2":30.254,"lo1":-89.0895,"lo2":-89.0443,"dy":0.0025,"dx":0.0025,"nx":19,"ny":19,"refTime":"2026-03-25T03:00:00:Z","depth":0,"parameterNumber":2,"parameterNumberName":"U-component_of_WINDS"},"data":[0,0,0,-2.4213,-2.4214,-2.426,-2.426,-2.4334,-2.4335,0,0,0,0,0,0,0,0,0,0,0,-2.4208,-2.4208,-2.4213,-2.4214,-2.426,-2.426,-2.4334,-2.4335,0,0,0,0,0,0,0,0,0,0,0,-2.4207,-2.4208,-2.4209,-2.4215,-2.426,-2.426,-2.4334,-2.4294,0,0,0,0,0,0,0,0,0,0,-2.4247,-2.425,-2.4208,-2.4209,-2.4215,-2.426,-2.426,-2.4292,-2.4297,-2.432,0,-2.4342,0,-2.434,-2.4341,-2.4341,0,0,0,-2.4208,-2.4246,-2.4251,-2.4209,-2.4215,-2.426,-2.4238,-2.4294,-2.43,-2.4326,-2.4343,-2.4345,-2.4341,-2.4341,-2.4342,-2.4494,-2.4495,0,0,-2.4206,-2.4221,-2.4247,-2.4255,-2.4248,-2.4236,-2.4239,-2.4297,-2.4317,-2.4343,-2.4346,-2.4342,-2.4342,-2.4343,-2.4493,-2.4495,0,0,0,-2.4202,-2.4219,-2.4222,-2.4252,-2.4259,-2.4238,-2.4241,-2.4314,-2.4314,-2.4347,-2.4343,-2.4343,-2.4344,-2.4492,-2.4494,-2.4557,0,0,0,-2.4201,-2.4217,-2.4221,-2.4231,-2.4258,-2.4287,-2.4257,-2.431,-2.4316,-2.4343,-2.4343,-2.4344,-2.4491,-2.4493,-2.4553,-2.4585,0,0,0,-2.4202,-2.4217,-2.4227,-2.4232,-2.4252,-2.4286,-2.4289,-2.4311,-2.4314,-2.4341,-2.4345,-2.449,-2.4493,-2.4549,-2.4578,-2.4629,0,0,0,-2.4208,-2.4282,-2.4228,-2.431,-2.4252,-2.4325,-2.4288,-2.4342,-2.4373,-2.4343,-2.4491,-2.4494,-2.4548,-2.4575,-2.4625,-2.4674,-2.4696,0,0,-2.431,-2.4295,-2.4343,-2.4295,-2.4382,-2.4316,-2.4413,-2.4427,-2.4416,-2.4469,-2.4473,-2.4554,-2.4578,-2.4628,-2.4813,-2.4831,0,0,0,-2.438,-2.4414,-2.4434,-2.4464,-2.4477,-2.4491,-2.4489,-2.4495,-2.4539,-2.4446,-2.4586,-2.46,-2.4628,-2.4651,-2.4666,-2.469,-2.4505,-2.4504,-2.4504,-2.4547,-2.4529,-2.4606,-2.4594,-2.4624,-2.4622,-2.4645,-2.4652,-2.4626,-2.4659,-2.4674,-2.4789,-2.4816,-2.4827,-2.4852,-2.4699,-2.4699,-2.47,-2.47,-2.4695,-2.4741,-2.4704,-2.4766,-2.4747,-2.4799,-2.48,-2.478,-2.4826,-2.4776,-2.48,-2.4746,-2.4846,-2.4867,-2.4704,-2.4704,-2.4703,-2.4703,-2.4702,-2.4802,-2.4821,-2.4826,-2.4869,-2.4904,-2.4889,-2.4935,-2.4917,-2.49,-2.4924,-2.4938,-2.4937,-2.4934,-2.4932,-2.4933,-2.4933,-2.4933,-2.4934,-2.4934,-2.491,-2.4914,-2.4955,-2.4976,-2.4993,-2.5014,-2.5013,-2.503,-2.5044,-2.5027,-2.5027,-2.4998,-2.486,-2.4825,-2.494,-2.4939,-2.4938,-2.4938,-2.4937,-2.5067,-2.5029,-2.5091,-2.5109,-2.5132,-2.5168,-2.5144,-2.5181,-2.5192,-2.5215,-2.5181,-2.5082,-2.5065,-2.5053,-2.5025,-2.5184,-2.5184,-2.5184,-2.5184,-2.5157,-2.5147,-2.5207,-2.5236,-2.5263,-2.5248,-2.532,-2.5321,-2.5316,-2.5323,-2.5297,-2.5258,-2.5246,-2.5236,-2.522,-2.5193,-2.5392,-2.5393,-2.5393,-2.5252,-2.5244,-2.5309,-2.5303,-2.532,-2.5335,-2.5403,-2.5439,-2.5426,-2.5401,-2.5327,-2.5318,-2.5254,-2.5235,-2.5207,-2.5183,-2.5133,0,0]},{"header":{"parameterUnit":"m.s-1","parameterCategory":1,"la1":30.2992,"la2":30.254,"lo1":-89.0895,"lo2":-89.0443,"dy":0.0025,"dx":0.0025,"nx":19,"ny":19,"refTime":"2026-03-25T03:00:00:Z","depth":0,"parameterNumber":3,"parameterNumberName":"V-component_of_WINDS"},"data":[0,0,0,2.2329,2.233,2.2353,2.2353,2.2384,2.2384,0,0,0,0,0,0,0,0,0,0,0,2.2323,2.2323,2.2329,2.233,2.2353,2.2353,2.2384,2.2384,0,0,0,0,0,0,0,0,0,0,0,2.2323,2.2323,2.2324,2.233,2.2353,2.2353,2.2384,2.2366,0,0,0,0,0,0,0,0,0,0,2.2343,2.2338,2.2323,2.2324,2.233,2.2353,2.2353,2.2365,2.2367,2.2374,0,2.2381,0,2.2383,2.2386,2.2386,0,0,0,2.2329,2.2337,2.2342,2.2324,2.233,2.2353,2.2342,2.2366,2.2368,2.2376,2.2381,2.2382,2.2384,2.2386,2.2387,2.2433,2.2433,0,0,2.2327,2.2328,2.2341,2.2344,2.2341,2.2341,2.2343,2.2367,2.2372,2.2381,2.2383,2.2384,2.2387,2.2387,2.2432,2.2433,0,0,0,2.2324,2.2327,2.2332,2.2343,2.2347,2.2342,2.2344,2.2371,2.2373,2.2383,2.2384,2.2387,2.2387,2.2432,2.2433,2.2447,0,0,0,2.2323,2.2325,2.2331,2.2332,2.2346,2.2359,2.2347,2.2371,2.2374,2.2384,2.2387,2.2388,2.2432,2.2432,2.2446,2.2453,0,0,0,2.2321,2.2325,2.2329,2.2332,2.2342,2.2359,2.2362,2.2372,2.2374,2.2386,2.2388,2.2432,2.2432,2.2445,2.2452,2.2466,0,0,0,2.2319,2.234,2.2329,2.2353,2.2342,2.2368,2.2362,2.2381,2.2393,2.2387,2.2432,2.2432,2.2444,2.2451,2.2465,2.2478,2.2483,0,0,2.2346,2.2344,2.2358,2.2349,2.2377,2.2364,2.2394,2.2404,2.2404,2.2423,2.2424,2.2446,2.2451,2.2465,2.2514,2.2518,0,0,0,2.2367,2.2377,2.2384,2.2396,2.2405,2.2413,2.2419,2.2422,2.2438,2.2414,2.2455,2.2458,2.2466,2.2472,2.2476,2.2483,2.2435,2.2435,2.2435,2.2406,2.2406,2.243,2.2432,2.2444,2.245,2.2459,2.2465,2.2461,2.247,2.2476,2.2505,2.2513,2.2515,2.2523,2.2483,2.2483,2.2483,2.2483,2.2446,2.2461,2.2456,2.2477,2.2476,2.2494,2.25,2.2497,2.2513,2.2501,2.2508,2.2495,2.252,2.2527,2.2484,2.2484,2.2484,2.2483,2.2483,2.2472,2.2479,2.2484,2.2501,2.2515,2.2517,2.2533,2.2531,2.253,2.2537,2.2543,2.2543,2.2543,2.254,2.254,2.254,2.254,2.2541,2.2541,2.2496,2.2501,2.2515,2.2527,2.2535,2.2545,2.2551,2.2559,2.2566,2.2564,2.2564,2.2559,2.2523,2.2514,2.2542,2.2542,2.2542,2.2542,2.2541,2.2537,2.2528,2.255,2.2558,2.2571,2.2585,2.2584,2.2599,2.2604,2.2612,2.2606,2.2579,2.2576,2.2573,2.2566,2.2606,2.2606,2.2606,2.2606,2.2559,2.2558,2.258,2.2593,2.2605,2.2606,2.263,2.2635,2.2639,2.2643,2.2637,2.2626,2.2624,2.2622,2.2618,2.2611,2.2662,2.2662,2.2662,2.2584,2.2584,2.2605,2.261,2.2621,2.263,2.2652,2.2667,2.2669,2.2664,2.2645,2.2643,2.2627,2.2621,2.2616,2.261,2.2597,0,0]}]]